Calgary Springbank,

6:23 PM MDT on July 27, 2017 (GMT -0600)
Calgary Springbank

Weather History for CYBW - March, 2012

Change the Weather History Date:

Thursday, March 15, 2012

  Actual Average Record
Temperature  
Mean Temperature 36 °F -  
Max Temperature 55 °F 40 °F 55 °F (2017)
Min Temperature 18 °F 18 °F -14 °F (1997)
Degree Days  
Heating Degree Days 28    
Moisture  
Dew Point 23 °F    
Average Humidity 51    
Maximum Humidity 70    
Minimum Humidity 30    
Precipitation  
Precipitation 0.00 in - - ()
Sea Level Pressure  
Sea Level Pressure 29.59 in    
Wind  
Wind Speed 7 mph ()    
Max Wind Speed 22 mph    
Max Gust Speed 30 mph    
Visibility 15.8 miles    
Events      
Averages and records for this station are not official NWS values.
T = Trace of Precipitation, MM = Missing Value Source: Averaged Metar Reports

Daily Weather History Graph

Daily Weather History Graph

Search for Another Location

Airport or City:

Trip Planner

Search our weather history database for the weather conditions in past years. The results will help you decide how hot, cold, wet, or windy it might be!

Date:

Astronomy

Mar. 15, 2012 Rise Set
Actual Time 7:50 AM MDT 7:43 PM MDT
Civil Twilight 7:17 AM MDT 8:16 PM MDT
Nautical Twilight 6:38 AM MDT 8:55 PM MDT
Astronomical Twilight 5:58 AM MDT 9:34 PM MDT
Moon 4:01 AM MDT (3/15) 12:25 PM MDT (3/15)
Length of Visible Light 12h 59m
Length of Day
11h 53m
Last Quarter, 42% of the Moon is Illuminated
Mar 15
Last Quarter
Mar 22
New
Mar 30
First Quarter
Apr 6
Full
Apr 13
Last Quarter

Hourly Weather History & Observations

Time (MDT) Temp. Windchill Dew Point Humidity Pressure Visibility Wind Dir Wind Speed Gust Speed Precip Events Conditions
5:00 AM 24.8 °F - 12.2 °F 59% 29.75 in 15.0 mi Calm Calm - N/A   Partly Cloudy
6:00 AM 23 °F - 13 °F 53% 29.74 in 15 mi SSE 2.3 mph - -  
6:00 AM 23.0 °F 18.4 °F 12.2 °F 63% 29.74 in 15.0 mi SSE 3.5 mph - N/A   Clear
7:00 AM 23.0 °F 18.4 °F 12.2 °F 63% 29.73 in 15.0 mi SSE 3.5 mph - N/A   Scattered Clouds
8:00 AM 23.0 °F - 12.2 °F 63% 29.72 in 20.0 mi South 2.3 mph - N/A   Scattered Clouds
9:00 AM 23.0 °F - 14.0 °F 68% 29.73 in 30.0 mi NNE 2.3 mph - N/A   Mostly Cloudy
10:00 AM 33.8 °F 28.6 °F 21.2 °F 60% 29.71 in 30.0 mi ESE 5.8 mph - N/A   Mostly Cloudy
11:00 AM 37.4 °F 31.4 °F 23.0 °F 56% 29.68 in 30.0 mi SSE 8.1 mph - N/A   Mostly Cloudy
12:00 PM 40 °F - 24 °F 39% 29.62 in 28 mi SE 5.8 mph - -   Partly Cloudy
12:00 PM 39.2 °F 35.9 °F 23.0 °F 52% 29.62 in 30.0 mi ESE 4.6 mph - N/A   Mostly Cloudy
1:00 PM 48.2 °F - 28.4 °F 46% 29.59 in 30.0 mi SE 10.4 mph - N/A   Mostly Cloudy
2:00 PM 51.8 °F - 26.6 °F 38% 29.55 in 30.0 mi SW 5.8 mph - N/A   Mostly Cloudy
3:00 PM 53.6 °F - 26.6 °F 35% 29.49 in 30.0 mi SW 20.7 mph 27.6 mph N/A   Mostly Cloudy
4:00 PM 53.6 °F - 26.6 °F 35% 29.48 in 30.0 mi SSW 20.7 mph - N/A   Overcast
5:00 PM 53.6 °F - 26.6 °F 35% 29.47 in 20.0 mi WSW 16.1 mph 23.0 mph N/A   Overcast
5:38 PM - - - N/A% - 15.0 mi WSW 18.4 mph 29.9 mph N/A   Overcast
6:00 PM 49 °F - 28 °F 30% 29.47 in 15 mi WSW 21.9 mph - -   Overcast
6:00 PM 48.2 °F - 28.4 °F 46% 29.47 in 15.0 mi WSW 21.9 mph 29.9 mph N/A   Overcast
7:00 PM 46.4 °F 38.7 °F 28.4 °F 50% 29.47 in 15.0 mi SW 20.7 mph - N/A   Overcast
8:00 PM 42.8 °F 34.8 °F 28.4 °F 57% 29.46 in 15.0 mi SSW 17.3 mph - N/A   Overcast
9:00 PM 42.8 °F 35.8 °F 30.2 °F 61% 29.47 in 15.0 mi SW 13.8 mph 19.6 mph N/A   Mostly Cloudy
10:00 PM 41.0 °F 33.1 °F 32.0 °F 70% 29.39 in 15.0 mi WSW 15.0 mph - N/A   Mostly Cloudy